RH
65 63 69 75 70 60 57 58 53 51 51 43 40 33 30 26 19 20 16 14 14 15 16 16 16 20 20 20 20 21 23 23 34 34 26 20 22 23 25 25 25 23 22
64 64 68 72 71 62 64 61 55 52 55 49 40 36 32 28 21 20 19 15 16 18 19 21 21 21 22 22 24 24 24 24 23 22 20 19 17 20 20 22 29 27 25
68 67 69 71 67 67 60 63 62 61 56 44 39 37 34 31 23 22 20 18 19 20 19 20 21 22 23 24 25 26 27 28 28 28 26 24 20 17 17 18 20 21 21
73 72 73 74 74 63 63 63 67 59 51 44 40 38 35 34 25 24 20 20 21 20 20 21 22 24 25 26 27 28 28 29 28 29 30 29 25 19 19 18 19 22 23
76 75 72 75 71 66 64 73 66 60 49 41 39 37 37 30 26 23 22 22 23 21 23 24 26 26 28 29 29 29 29 31 30 29 28 28 27 24 19 20 21 20 20
73 74 78 78 74 76 78 73 67 53 46 41 37 39 31 29 31 33 26 23 22 22 26 28 29 29 30 32 34 37 36 32 31 28 28 26 23 23 21 20 22 23 23
83 86 87 84 87 91 85 78 62 50 44 40 44 42 36 35 35 30 26 25 23 26 30 32 35 37 37 40 42 42 43 41 36 31 28 27 26 25 22 21 20 21 23
94 98 98 92 98 98 90 72 59 53 50 52 44 38 36 35 32 29 29 28 28 29 35 40 40 43 47 50 50 49 48 46 41 38 32 30 30 28 26 24 24 24 22
95 98 98 99 99 96 84 72 67 65 59 42 35 33 29 29 29 30 32 33 33 38 41 42 46 52 53 53 53 51 48 47 45 42 40 37 35 32 31 30 29 28 28
90 97 94 98 96 92 84 77 74 59 37 29 32 31 32 34 33 33 33 38 40 41 40 45 52 56 52 50 52 52 55 53 46 42 38 36 37 36 33 34 31 31 29
88 95 94 93 90 91 87 81 57 35 24 30 36 35 34 35 37 39 40 41 39 41 46 50 49 50 48 45 45 46 49 46 41 37 32 28 28 29 28 30 31 30 31
93 93 90 87 83 82 77 65 52 39 36 39 44 45 44 43 40 41 41 43 44 50 52 49 52 50 41 38 39 41 37 32 31 30 26 24 25 25 25 25 26 27 30
93 80 71 70 69 64 55 38 28 27 37 39 39 43 43 45 47 50 49 48 53 52 52 52 51 42 38 39 39 36 32 29 28 26 26 28 28 28 30 28 26 27 28
66 64 58 60 59 45 34 29 32 35 38 41 44 48 51 49 48 49 53 52 53 51 50 48 43 38 41 40 38 32 30 29 25 26 27 28 29 29 31 32 33 33 33
52 50 45 43 39 38 30 32 36 45 52 58 55 51 51 48 47 48 48 46 49 47 44 40 35 35 34 33 33 32 29 26 24 25 26 28 29 28 29 32 33 34 35
30 30 37 36 34 32 36 44 46 58 61 59 57 53 51 41 43 42 43 43 45 40 35 32 34 33 34 33 32 30 28 25 24 25 26 27 27 27 30 32 35 38 39
32 35 34 35 35 39 44 46 56 61 64 61 53 51 46 43 41 42 42 39 34 30 32 35 36 36 34 34 33 31 25 25 24 24 24 25 24 26 27 30 33 38 39
35 39 43 45 46 48 49 53 60 62 64 57 49 47 41 39 39 35 31 30 31 34 35 35 35 34 32 31 28 27 28 27 27 27 27 27 26 28 31 32 33 33 34
39 42 43 43 45 48 51 56 61 70 62 51 45 41 38 35 30 27 28 31 33 35 34 35 35 32 29 28 29 29 28 28 29 31 29 28 27 25 26 28 29 29 27
40 43 46 46 50 54 56 58 62 53 48 46 41 38 36 29 28 29 31 33 35 35 36 38 40 35 33 33 32 31 30 32 35 34 32 28 26 23 23 24 26 27 27
36 41 46 50 53 55 59 60 58 54 53 47 43 39 33 31 31 32 34 38 38 36 34 36 37 37 35 34 32 33 34 36 38 36 35 32 27 26 26 27 28 30 29
43 41 45 53 56 59 61 60 60 59 57 50 45 41 36 35 35 36 38 40 41 44 43 39 35 39 40 39 38 37 40 41 42 41 39 39 37 35 37 38 36 35 34
46 46 44 52 57 62 61 63 63 63 59 50 46 43 41 41 41 43 45 47 48 47 47 47 50 47 48 44 44 45 45 47 49 49 45 45 45 46 45 42 37 36 35
49 53 55 57 61 66 63 63 62 64 73 48 47 44 45 46 49 50 50 50 52 56 60 54 50 56 49 52 54 55 55 57 57 53 53 53 52 49 52 48 41 35 31
51 57 58 60 69 68 64 64 61 63 70 54 51 50 50 52 55 56 55 54 55 59 58 64 67 61 56 52 53 50 52 54 56 55 53 54 52 55 55 52 52 45 41
55 57 66 70 69 71 62 62 61 65 65 68 64 62 61 61 60 59 58 57 64 74 83 69 61 56 57 59 57 53 57 60 59 60 56 56 58 62 62 62 63 57 45